• In Romania
  • List of Countries
  • For 7 days
  • Water Temperature
  • Satellite Maps
  • Weather Map
  • Weather Widgets
  • user-avatar
    Login

    Hourly Weather Tehran

    Today, 20 September, Thursday

    Time Temperature Precipitation Wind Pressure Humidity
    00:00 +26°C° 0.3 mm 2 mps 667 mmHg 46%
    01:00 +25°C° 0.3 mm 2 mps 667 mmHg 48%
    02:00 +25°C° 0.3 mm 2 mps 667 mmHg 49%
    03:00 +24°C° 0 mm 1 mps 667 mmHg 57%
    04:00 +24°C° 0.7 mm 1 mps 667 mmHg 57%
    05:00 +24°C° 0.7 mm 1 mps 667 mmHg 58%
    06:00 +24°C° 0.7 mm 1 mps 667 mmHg 58%
    07:00 +25°C° 0.6 mm 2 mps 668 mmHg 53%
    08:00 +26°C° 0.6 mm 2 mps 668 mmHg 49%
    09:00 +26°C° 0 mm 2 mps 669 mmHg 45%
    10:00 +27°C° 0.4 mm 2 mps 669 mmHg 43%
    11:00 +27°C° 0.4 mm 2 mps 669 mmHg 41%
    12:00 +28°C° 0.4 mm 2 mps 669 mmHg 38%
    13:00 +28°C° 0.5 mm 2 mps 668 mmHg 38%
    14:00 +29°C° 0.5 mm 2 mps 668 mmHg 37%
    15:00 +29°C° 0.5 mm 2 mps 668 mmHg 36%
    16:00 +29°C° 0.4 mm 2 mps 668 mmHg 38%
    17:00 +28°C° 0.4 mm 1 mps 668 mmHg 39%
    18:00 +28°C° 0.4 mm 1 mps 668 mmHg 41%
    19:00 +28°C° 0.7 mm 2 mps 668 mmHg 42%
    20:00 +27°C° 0.7 mm 2 mps 668 mmHg 43%
    21:00 +27°C° 0.7 mm 2 mps 668 mmHg 43%
    22:00 +26°C° 0.9 mm 3 mps 668 mmHg 47%
    23:00 +25°C° 0.9 mm 3 mps 668 mmHg 50%

    Tomorrow, 21 September, Friday

    Time Temperature Precipitation Wind Pressure Humidity
    00:00 +25°C° 0.9 mm 3 mps 668 mmHg 53%
    01:00 +24°C° 0.3 mm 2 mps 667 mmHg 55%
    02:00 +24°C° 0.3 mm 2 mps 667 mmHg 56%
    03:00 +24°C° 0.3 mm 2 mps 667 mmHg 57%
    04:00 +23°C° 0 mm 1 mps 667 mmHg 58%
    05:00 +23°C° 0 mm 1 mps 668 mmHg 58%
    06:00 +23°C° 0 mm 1 mps 668 mmHg 58%
    07:00 +24°C° 0 mm 1 mps 668 mmHg 54%
    08:00 +25°C° 0 mm 1 mps 668 mmHg 49%
    09:00 +25°C° 0 mm 2 mps 668 mmHg 44%
    10:00 +26°C° 0 mm 2 mps 668 mmHg 42%
    11:00 +27°C° 0 mm 2 mps 668 mmHg 39%
    12:00 +28°C° 0 mm 2 mps 668 mmHg 36%
    13:00 +28°C° 0 mm 2 mps 668 mmHg 35%
    14:00 +28°C° 0 mm 2 mps 668 mmHg 34%
    15:00 +29°C° 0 mm 2 mps 667 mmHg 32%
    16:00 +28°C° 0 mm 2 mps 667 mmHg 33%
    17:00 +28°C° 0 mm 2 mps 667 mmHg 34%
    18:00 +27°C° 0 mm 2 mps 667 mmHg 35%
    19:00 +27°C° 0 mm 2 mps 667 mmHg 36%
    20:00 +27°C° 0 mm 2 mps 668 mmHg 36%
    21:00 +26°C° 0 mm 2 mps 668 mmHg 37%
    22:00 +26°C° 0 mm 2 mps 668 mmHg 38%
    23:00 +26°C° 0 mm 2 mps 668 mmHg 39%

    Day after tomorrow, 22 September, Saturday

    Time Temperature Precipitation Wind Pressure Humidity
    00:00 +25°C° 0 mm 2 mps 667 mmHg 39%
    01:00 +25°C° 0 mm 2 mps 667 mmHg 40%
    02:00 +24°C° 0 mm 2 mps 667 mmHg 40%
    03:00 +24°C° 0 mm 2 mps 667 mmHg 41%
    04:00 +24°C° 0 mm 1 mps 667 mmHg 41%
    05:00 +24°C° 0 mm 1 mps 668 mmHg 41%
    06:00 +24°C° 0 mm 1 mps 668 mmHg 41%
    07:00 +25°C° 0 mm 1 mps 668 mmHg 37%
    08:00 +26°C° 0 mm 2 mps 668 mmHg 33%
    09:00 +27°C° 0 mm 2 mps 669 mmHg 28%
    10:00 +27°C° 0 mm 2 mps 669 mmHg 27%
    11:00 +28°C° 0 mm 2 mps 668 mmHg 26%
    12:00 +29°C° 0 mm 2 mps 668 mmHg 24%
    13:00 +29°C° 0 mm 2 mps 668 mmHg 24%
    14:00 +29°C° 0 mm 2 mps 668 mmHg 23%
    15:00 +29°C° 0 mm 2 mps 667 mmHg 22%
    16:00 +29°C° 0 mm 2 mps 667 mmHg 23%
    17:00 +28°C° 0 mm 2 mps 667 mmHg 24%
    18:00 +28°C° 0 mm 1 mps 667 mmHg 25%
    19:00 +28°C° 0 mm 1 mps 667 mmHg 25%
    20:00 +27°C° 0 mm 2 mps 668 mmHg 25%
    21:00 +27°C° 0 mm 2 mps 668 mmHg 25%
    22:00 +27°C° 0.1 mm 2 mps 668 mmHg 26%
    23:00 +26°C° 0.1 mm 2 mps 668 mmHg 26%

    23 September, Sunday

    Time Temperature Precipitation Wind Pressure Humidity
    00:00 +26°C° 0.1 mm 2 mps 667 mmHg 27%
    01:00 +25°C° 0.1 mm 2 mps 667 mmHg 27%
    02:00 +25°C° 0.1 mm 2 mps 667 mmHg 27%
    03:00 +25°C° 0.1 mm 2 mps 667 mmHg 28%
    04:00 +25°C° 0.1 mm 2 mps 667 mmHg 29%
    05:00 +24°C° 0.1 mm 2 mps 667 mmHg 30%
    06:00 +24°C° 0.1 mm 2 mps 667 mmHg 32%
    07:00 +25°C° 0.1 mm 2 mps 667 mmHg 30%
    08:00 +26°C° 0.1 mm 3 mps 668 mmHg 28%
    09:00 +27°C° 0.1 mm 3 mps 668 mmHg 26%
    10:00 +28°C° 0.2 mm 3 mps 668 mmHg 25%
    11:00 +29°C° 0.2 mm 3 mps 667 mmHg 24%
    12:00 +30°C° 0.2 mm 3 mps 667 mmHg 24%
    13:00 +30°C° 0.1 mm 3 mps 667 mmHg 24%
    14:00 +30°C° 0.1 mm 3 mps 666 mmHg 24%
    15:00 +30°C° 0.1 mm 3 mps 666 mmHg 24%
    16:00 +29°C° 0.2 mm 3 mps 665 mmHg 26%
    17:00 +29°C° 0.2 mm 3 mps 665 mmHg 28%
    18:00 +28°C° 0.2 mm 3 mps 665 mmHg 30%
    19:00 +28°C° 0.2 mm 3 mps 665 mmHg 31%
    20:00 +27°C° 0.2 mm 2 mps 665 mmHg 32%
    21:00 +27°C° 0.2 mm 2 mps 666 mmHg 33%
    22:00 +27°C° 0.2 mm 2 mps 665 mmHg 33%
    23:00 +26°C° 0.2 mm 2 mps 665 mmHg 33%

    24 September, Monday

    Time Temperature Precipitation Wind Pressure Humidity
    00:00 +26°C° 0.2 mm 2 mps 665 mmHg 32%
    01:00 +25°C° 0 mm 2 mps 665 mmHg 33%
    02:00 +25°C° 0 mm 2 mps 665 mmHg 34%
    03:00 +25°C° 0 mm 1 mps 664 mmHg 35%
    04:00 +24°C° 0 mm 1 mps 665 mmHg 36%
    05:00 +24°C° 0 mm 1 mps 665 mmHg 38%
    06:00 +24°C° 0 mm 1 mps 665 mmHg 39%
    07:00 +25°C° 0 mm 1 mps 665 mmHg 36%
    08:00 +26°C° 0 mm 1 mps 666 mmHg 33%
    09:00 +27°C° 0 mm 1 mps 666 mmHg 29%
    10:00 +28°C° 0.1 mm 2 mps 666 mmHg 28%
    11:00 +28°C° 0.1 mm 2 mps 666 mmHg 27%
    12:00 +29°C° 0.1 mm 2 mps 666 mmHg 26%
    13:00 +29°C° 0.3 mm 2 mps 666 mmHg 26%
    14:00 +29°C° 0.3 mm 2 mps 666 mmHg 26%
    15:00 +29°C° 0.3 mm 2 mps 665 mmHg 26%
    16:00 +29°C° 0.2 mm 1 mps 666 mmHg 27%
    17:00 +28°C° 0.2 mm 1 mps 666 mmHg 29%
    18:00 +28°C° 0.2 mm 1 mps 666 mmHg 30%
    19:00 +27°C° 0.2 mm 2 mps 666 mmHg 31%
    20:00 +27°C° 0.2 mm 2 mps 666 mmHg 33%
    21:00 +26°C° 0.2 mm 3 mps 666 mmHg 34%
    22:00 +26°C° 0.6 mm 3 mps 666 mmHg 37%
    23:00 +25°C° 0.6 mm 3 mps 666 mmHg 40%

    25 September, Tuesday

    Time Temperature Precipitation Wind Pressure Humidity
    00:00 +25°C° 0.6 mm 3 mps 666 mmHg 42%
    01:00 +24°C° 0.6 mm 3 mps 666 mmHg 43%
    02:00 +24°C° 0.6 mm 3 mps 665 mmHg 44%
    03:00 +24°C° 0.6 mm 3 mps 665 mmHg 46%
    04:00 +23°C° 0.2 mm 2 mps 665 mmHg 46%
    05:00 +23°C° 0.2 mm 2 mps 666 mmHg 45%
    06:00 +23°C° 0.2 mm 2 mps 666 mmHg 45%
    07:00 +24°C° 0 mm 2 mps 666 mmHg 42%
    08:00 +25°C° 0 mm 2 mps 666 mmHg 38%
    09:00 +26°C° 0 mm 2 mps 666 mmHg 34%
    10:00 +27°C° 0 mm 2 mps 666 mmHg 33%
    11:00 +27°C° 0 mm 2 mps 666 mmHg 31%
    12:00 +28°C° 0 mm 2 mps 666 mmHg 29%
    13:00 +28°C° 0 mm 2 mps 665 mmHg 29%
    14:00 +28°C° 0 mm 2 mps 665 mmHg 28%
    15:00 +29°C° 0 mm 2 mps 665 mmHg 27%
    16:00 +28°C° 0 mm 1 mps 665 mmHg 28%
    17:00 +28°C° 0 mm 1 mps 665 mmHg 29%
    18:00 +27°C° 0 mm 1 mps 665 mmHg 30%
    19:00 +27°C° 0 mm 1 mps 665 mmHg 31%
    20:00 +27°C° 0 mm 1 mps 665 mmHg 32%
    21:00 +26°C° 0 mm 1 mps 665 mmHg 34%
    22:00 +26°C° 0 mm 1 mps 665 mmHg 34%
    23:00 +25°C° 0 mm 1 mps 665 mmHg 35%
    Show more